| time (UTC) | temp C | wind direction | speed KPH | gust KPH | rain 1hr cm | rain 24hr cm | rain mn cm | humidity % | barometer mb |
| 20260507195753 | 19 | 119 | 4.8 | 4.8 | 0.00 | 0.08 | 0.08 | 35 | 1007.8 |
| 20260507195251 | 19 | 233 | 3.2 | 6.4 | 0.00 | 0.08 | 0.08 | 33 | 1007.9 |
| 20260507194748 | 18 | 231 | 3.2 | 4.8 | 0.00 | 0.08 | 0.08 | 33 | 1008.1 |
| 20260507194244 | 18 | 342 | 4.8 | 8.0 | 0.00 | 0.08 | 0.08 | 34 | 1008.4 |
| 20260507193741 | 20 | 39 | 3.2 | 6.4 | 0.00 | 0.08 | 0.08 | 32 | 1008.2 |
| 20260507193237 | 20 | 337 | 3.2 | 4.8 | 0.00 | 0.08 | 0.08 | 34 | 1008.1 |
| 20260507192734 | 20 | 319 | 3.2 | 8.0 | 0.00 | 0.08 | 0.08 | 36 | 1008.1 |
| 20260507192230 | 20 | 342 | 6.4 | 6.4 | 0.00 | 0.08 | 0.08 | 36 | 1008.3 |
| 20260507191726 | 19 | 27 | 1.6 | 3.2 | 0.00 | 0.08 | 0.08 | 35 | 1008.3 |
| 20260507191224 | 19 | 265 | 4.8 | 8.0 | 0.00 | 0.08 | 0.08 | 33 | 1008.5 |
| 20260507190720 | 18 | 305 | 9.7 | 9.7 | 0.00 | 0.08 | 0.08 | 36 | 1008.7 |
| 20260507190219 | 18 | 354 | 6.4 | 9.7 | 0.00 | 0.08 | 0.08 | 38 | 1008.7 |
| 20260507185717 | 19 | 302 | 4.8 | 9.7 | 0.00 | 0.08 | 0.08 | 34 | 1008.5 |
| 20260507185214 | 19 | 325 | 1.6 | 6.4 | 0.00 | 0.08 | 0.08 | 39 | 1008.9 |
| 20260507184711 | 19 | 309 | 4.8 | 9.7 | 0.00 | 0.08 | 0.08 | 36 | 1009.0 |
| 20260507184209 | 18 | 310 | 4.8 | 9.7 | 0.00 | 0.08 | 0.08 | 34 | 1009.0 |
| 20260507183705 | 18 | 255 | 9.7 | 9.7 | 0.00 | 0.08 | 0.08 | 35 | 1009.0 |
| 20260507183202 | 18 | 279 | 3.2 | 6.4 | 0.00 | 0.08 | 0.08 | 37 | 1008.8 |
| 20260507182700 | 18 | 289 | 3.2 | 6.4 | 0.00 | 0.08 | 0.08 | 35 | 1009.2 |
| 20260507182155 | 18 | 316 | 6.4 | 9.7 | 0.00 | 0.08 | 0.08 | 37 | 1008.9 |
| 20260507181652 | 18 | 23 | 4.8 | 6.4 | 0.00 | 0.08 | 0.08 | 34 | 1009.1 |
| 20260507181148 | 18 | 293 | 3.2 | 4.8 | 0.00 | 0.08 | 0.08 | 34 | 1009.0 |
| 20260507180644 | 18 | 329 | 8.0 | 9.7 | 0.00 | 0.08 | 0.08 | 35 | 1009.3 |
| 20260507180142 | 18 | 23 | 4.8 | 6.4 | 0.00 | 0.08 | 0.08 | 39 | 1009.2 |
| 20260507175637 | 17 | 120 | 0.0 | 4.8 | 0.00 | 0.08 | 0.08 | 34 | 1009.4 |
| 20260507175135 | 18 | 355 | 4.8 | 8.0 | 0.00 | 0.08 | 0.08 | 37 | 1009.5 |
| 20260507174632 | 18 | 108 | 6.4 | 16.1 | 0.00 | 0.08 | 0.08 | 36 | 1009.5 |
| 20260507174130 | 17 | 118 | 4.8 | 6.4 | 0.00 | 0.08 | 0.08 | 39 | 1009.7 |
| 20260507173627 | 17 | 266 | 6.4 | 8.0 | 0.00 | 0.08 | 0.08 | 37 | 1009.7 |
| 20260507173124 | 17 | 24 | 3.2 | 9.7 | 0.00 | 0.08 | 0.08 | 41 | 1009.8 |
| 20260507172620 | 17 | 280 | 3.2 | 9.7 | 0.00 | 0.08 | 0.08 | 36 | 1009.8 |
| 20260507172117 | 17 | 313 | 6.4 | 11.3 | 0.00 | 0.08 | 0.08 | 35 | 1010.0 |
| 20260507171612 | 17 | 3 | 1.6 | 6.4 | 0.00 | 0.08 | 0.08 | 37 | 1010.2 |
| 20260507171109 | 17 | 39 | 3.2 | 6.4 | 0.00 | 0.08 | 0.08 | 35 | 1010.3 |
| 20260507170607 | 17 | 38 | 4.8 | 8.0 | 0.00 | 0.08 | 0.08 | 36 | 1010.4 |
| 20260507170103 | 16 | 7 | 4.8 | 4.8 | 0.00 | 0.08 | 0.08 | 35 | 1010.6 |
| 20260507165559 | 17 | 318 | 6.4 | 9.7 | 0.00 | 0.08 | 0.08 | 35 | 1010.5 |
| 20260507165055 | 17 | 326 | 6.4 | 11.3 | 0.00 | 0.08 | 0.08 | 39 | 1010.6 |
| 20260507164552 | 17 | 13 | 4.8 | 8.0 | 0.00 | 0.08 | 0.08 | 37 | 1010.7 |
| 20260507164049 | 16 | 285 | 6.4 | 8.0 | 0.00 | 0.08 | 0.08 | 40 | 1010.7 |
| 20260507163546 | 17 | 295 | 3.2 | 4.8 | 0.00 | 0.08 | 0.08 | 46 | 1010.6 |
| 20260507163044 | 17 | 353 | 4.8 | 6.4 | 0.00 | 0.08 | 0.08 | 41 | 1010.8 |
| 20260507162544 | 16 | 357 | 4.8 | 9.7 | 0.00 | 0.08 | 0.08 | 42 | 1010.9 |
| 20260507162042 | 16 | 9 | 6.4 | 8.0 | 0.00 | 0.08 | 0.08 | 40 | 1011.0 |
| 20260507161539 | 16 | 80 | 3.2 | 16.1 | 0.00 | 0.08 | 0.08 | 37 | 1011.1 |
| 20260507161034 | 16 | 282 | 0.0 | 6.4 | 0.00 | 0.08 | 0.08 | 41 | 1011.1 |
| 20260507160530 | 15 | 323 | 8.0 | 9.7 | 0.00 | 0.08 | 0.08 | 38 | 1011.1 |
| 20260507160027 | 16 | 23 | 3.2 | 8.0 | 0.00 | 0.08 | 0.08 | 38 | 1011.2 |
| 20260507155522 | 15 | 14 | 11.3 | 11.3 | 0.00 | 0.08 | 0.08 | 41 | 1011.2 |
| 20260507155020 | 16 | 351 | 4.8 | 8.0 | 0.00 | 0.08 | 0.08 | 40 | 1011.4 |
| 20260507154516 | 16 | 330 | 3.2 | 9.7 | 0.00 | 0.08 | 0.08 | 40 | 1011.2 |
| 20260507154014 | 15 | 7 | 3.2 | 4.8 | 0.00 | 0.08 | 0.08 | 42 | 1011.2 |
| 20260507153510 | 15 | 6 | 6.4 | 6.4 | 0.00 | 0.08 | 0.08 | 41 | 1011.3 |
| 20260507153006 | 15 | 42 | 6.4 | 6.4 | 0.00 | 0.08 | 0.08 | 40 | 1011.6 |
| 20260507152502 | 15 | 14 | 1.6 | 6.4 | 0.00 | 0.08 | 0.08 | 43 | 1011.6 |
| 20260507151959 | 15 | 48 | 1.6 | 4.8 | 0.00 | 0.08 | 0.08 | 46 | 1011.8 |
| 20260507151455 | 15 | 31 | 3.2 | 8.0 | 0.00 | 0.08 | 0.08 | 43 | 1011.6 |
| 20260507150952 | 15 | 39 | 3.2 | 8.0 | 0.00 | 0.08 | 0.08 | 44 | 1011.5 |
| 20260507150449 | 15 | 19 | 3.2 | 14.5 | 0.00 | 0.08 | 0.08 | 41 | 1011.9 |
| 20260507145945 | 15 | 112 | 4.8 | 6.4 | 0.00 | 0.08 | 0.08 | 46 | 1012.0 |
| 20260507145441 | 15 | 337 | 1.6 | 9.7 | 0.00 | 0.08 | 0.08 | 46 | 1012.2 |
| 20260507144938 | 14 | 3 | 3.2 | 6.4 | 0.00 | 0.08 | 0.08 | 52 | 1012.2 |
| 20260507144435 | 13 | 15 | 4.8 | 4.8 | 0.00 | 0.08 | 0.08 | 46 | 1012.1 |
| 20260507143932 | 13 | 13 | 3.2 | 3.2 | 0.00 | 0.08 | 0.08 | 46 | 1012.1 |
| 20260507143430 | 13 | 62 | 0.0 | 3.2 | 0.00 | 0.08 | 0.08 | 51 | 1012.3 |
| 20260507142926 | 12 | 9 | 4.8 | 8.0 | 0.00 | 0.08 | 0.08 | 47 | 1012.5 |
| 20260507142422 | 12 | 24 | 3.2 | 4.8 | 0.00 | 0.08 | 0.08 | 48 | 1012.2 |
| 20260507141919 | 12 | 350 | 4.8 | 4.8 | 0.00 | 0.08 | 0.08 | 48 | 1012.2 |
| 20260507141415 | 12 | 14 | 3.2 | 3.2 | 0.00 | 0.08 | 0.08 | 50 | 1012.3 |
| 20260507140912 | 12 | 346 | 3.2 | 4.8 | 0.00 | 0.08 | 0.08 | 49 | 1012.5 |
| 20260507140409 | 12 | 15 | 3.2 | 4.8 | 0.00 | 0.08 | 0.08 | 50 | 1012.6 |
| 20260507135907 | 12 | 3 | 1.6 | 8.0 | 0.00 | 0.08 | 0.08 | 51 | 1012.7 |
| 20260507135403 | 12 | 328 | 0.0 | 4.8 | 0.00 | 0.08 | 0.08 | 50 | 1012.8 |
| 20260507134901 | 12 | 340 | 3.2 | 8.0 | 0.00 | 0.08 | 0.08 | 49 | 1013.0 |
| 20260507134356 | 12 | 342 | 4.8 | 6.4 | 0.00 | 0.08 | 0.08 | 49 | 1012.9 |
| 20260507133853 | 12 | 1 | 8.0 | 8.0 | 0.00 | 0.08 | 0.08 | 50 | 1012.9 |
| 20260507133348 | 12 | 7 | 4.8 | 6.4 | 0.00 | 0.08 | 0.08 | 53 | 1012.9 |
| 20260507132847 | 12 | 348 | 4.8 | 8.0 | 0.00 | 0.08 | 0.08 | 52 | 1012.5 |
| 20260507132343 | 12 | 2 | 6.4 | 6.4 | 0.00 | 0.08 | 0.08 | 53 | 1012.8 |
| 20260507131840 | 12 | 337 | 3.2 | 6.4 | 0.00 | 0.08 | 0.08 | 53 | 1012.7 |
| 20260507131337 | 12 | 4 | 6.4 | 6.4 | 0.00 | 0.08 | 0.08 | 54 | 1012.7 |
| 20260507130834 | 12 | 346 | 3.2 | 9.7 | 0.00 | 0.08 | 0.08 | 53 | 1012.6 |
| 20260507130331 | 12 | 354 | 8.0 | 8.0 | 0.00 | 0.08 | 0.08 | 52 | 1013.1 |
| 20260507125830 | 12 | 13 | 3.2 | 6.4 | 0.00 | 0.08 | 0.08 | 53 | 1012.9 |
| 20260507125327 | 12 | 321 | 0.0 | 6.4 | 0.00 | 0.08 | 0.08 | 53 | 1012.9 |
| 20260507124824 | 12 | 346 | 4.8 | 4.8 | 0.00 | 0.08 | 0.08 | 54 | 1012.9 |
| 20260507124320 | 12 | 345 | 4.8 | 6.4 | 0.00 | 0.08 | 0.08 | 53 | 1013.0 |
| 20260507123819 | 12 | 355 | 4.8 | 8.0 | 0.00 | 0.08 | 0.08 | 53 | 1013.0 |
| 20260507123316 | 12 | 333 | 3.2 | 4.8 | 0.00 | 0.08 | 0.08 | 56 | 1012.9 |
| 20260507122812 | 11 | 355 | 3.2 | 4.8 | 0.00 | 0.08 | 0.08 | 57 | 1012.8 |
| 20260507122308 | 11 | 310 | 1.6 | 4.8 | 0.00 | 0.08 | 0.08 | 56 | 1012.9 |
| 20260507121804 | 11 | 327 | 3.2 | 3.2 | 0.00 | 0.08 | 0.08 | 57 | 1012.7 |
| 20260507121300 | 11 | 351 | 3.2 | 4.8 | 0.00 | 0.08 | 0.08 | 56 | 1012.7 |
| 20260507120756 | 11 | 316 | 3.2 | 8.0 | 0.00 | 0.08 | 0.08 | 56 | 1012.9 |
| 20260507120253 | 11 | 331 | 3.2 | 6.4 | 0.00 | 0.08 | 0.08 | 56 | 1012.9 |
| 20260507115749 | 11 | 11 | 3.2 | 4.8 | 0.00 | 0.08 | 0.08 | 56 | 1012.8 |
| 20260507115245 | 11 | 333 | 0.0 | 3.2 | 0.00 | 0.08 | 0.08 | 55 | 1012.7 |
| 20260507114741 | 11 | 341 | 1.6 | 4.8 | 0.00 | 0.08 | 0.08 | 55 | 1012.6 |
| 20260507114238 | 11 | 320 | 1.6 | 4.8 | 0.00 | 0.08 | 0.08 | 55 | 1012.7 |
| 20260507113736 | 11 | 346 | 1.6 | 6.4 | 0.00 | 0.08 | 0.08 | 55 | 1012.4 |
| 20260507113232 | 11 | 323 | 3.2 | 4.8 | 0.00 | 0.08 | 0.08 | 56 | 1012.4 |
| 20260507112730 | 12 | 310 | 1.6 | 6.4 | 0.00 | 0.08 | 0.08 | 54 | 1012.3 |
| 20260507112227 | 11 | 347 | 4.8 | 4.8 | 0.00 | 0.08 | 0.08 | 54 | 1012.1 |
| 20260507111724 | 12 | 336 | 4.8 | 6.4 | 0.00 | 0.08 | 0.08 | 55 | 1012.3 |
| 20260507111221 | 12 | 326 | 3.2 | 9.7 | 0.00 | 0.08 | 0.08 | 54 | 1012.2 |
| 20260507110717 | 12 | 353 | 4.8 | 8.0 | 0.00 | 0.08 | 0.08 | 56 | 1012.3 |
| 20260507110214 | 12 | 347 | 3.2 | 4.8 | 0.00 | 0.08 | 0.08 | 58 | 1012.2 |
| 20260507105711 | 12 | 26 | 3.2 | 4.8 | 0.00 | 0.08 | 0.08 | 58 | 1012.2 |
| 20260507105206 | 12 | 337 | 1.6 | 4.8 | 0.00 | 0.08 | 0.08 | 60 | 1012.4 |
| 20260507104704 | 12 | 9 | 4.8 | 6.4 | 0.00 | 0.08 | 0.08 | 61 | 1012.3 |
| 20260507104200 | 12 | 352 | 3.2 | 4.8 | 0.00 | 0.08 | 0.08 | 61 | 1012.2 |
| 20260507103656 | 12 | 7 | 3.2 | 4.8 | 0.00 | 0.08 | 0.08 | 62 | 1012.1 |
| 20260507103153 | 12 | 0 | 6.4 | 6.4 | 0.00 | 0.08 | 0.08 | 64 | 1012.0 |
| 20260507102649 | 12 | 18 | 3.2 | 3.2 | 0.00 | 0.08 | 0.08 | 65 | 1011.9 |
| 20260507102146 | 12 | 325 | 1.6 | 3.2 | 0.00 | 0.08 | 0.08 | 67 | 1011.8 |
| 20260507101642 | 12 | 346 | 3.2 | 3.2 | 0.00 | 0.08 | 0.08 | 67 | 1011.9 |
| 20260507101138 | 12 | 24 | 3.2 | 4.8 | 0.00 | 0.08 | 0.08 | 68 | 1011.6 |
| 20260507100635 | 12 | 352 | 1.6 | 4.8 | 0.00 | 0.08 | 0.08 | 67 | 1011.7 |
| 20260507100133 | 12 | 1 | 3.2 | 4.8 | 0.00 | 0.08 | 0.08 | 67 | 1011.5 |
| 20260507095631 | 12 | 325 | 3.2 | 4.8 | 0.00 | 0.08 | 0.08 | 66 | 1011.7 |
| 20260507095127 | 12 | 0 | 3.2 | 4.8 | 0.00 | 0.08 | 0.08 | 67 | 1011.5 |
| 20260507094624 | 12 | 21 | 4.8 | 6.4 | 0.00 | 0.08 | 0.08 | 66 | 1011.6 |
| 20260507094121 | 12 | 347 | 3.2 | 4.8 | 0.00 | 0.08 | 0.08 | 66 | 1011.4 |
| 20260507093618 | 12 | 339 | 3.2 | 6.4 | 0.00 | 0.08 | 0.08 | 66 | 1011.4 |
| 20260507093117 | 12 | 337 | 3.2 | 4.8 | 0.00 | 0.08 | 0.08 | 66 | 1011.4 |
| 20260507092613 | 12 | 19 | 3.2 | 6.4 | 0.00 | 0.08 | 0.08 | 67 | 1011.4 |
| 20260507092109 | 12 | 29 | 3.2 | 3.2 | 0.00 | 0.08 | 0.08 | 67 | 1011.4 |
| 20260507091606 | 12 | 350 | 3.2 | 3.2 | 0.00 | 0.08 | 0.08 | 66 | 1011.3 |
| 20260507091102 | 12 | 355 | 4.8 | 6.4 | 0.00 | 0.08 | 0.08 | 66 | 1011.1 |
| 20260507090558 | 12 | 22 | 3.2 | 3.2 | 0.00 | 0.08 | 0.08 | 66 | 1011.1 |
| 20260507090055 | 12 | 356 | 3.2 | 4.8 | 0.00 | 0.08 | 0.08 | 66 | 1011.4 |
| 20260507085552 | 12 | 42 | 0.0 | 1.6 | 0.00 | 0.08 | 0.08 | 66 | 1011.3 |
| 20260507085049 | 12 | 351 | 3.2 | 4.8 | 0.00 | 0.08 | 0.08 | 65 | 1011.4 |
| 20260507084545 | 12 | 340 | 1.6 | 3.2 | 0.00 | 0.08 | 0.08 | 65 | 1011.3 |
| 20260507084043 | 12 | 247 | 0.0 | 1.6 | 0.00 | 0.08 | 0.08 | 66 | 1011.5 |
| 20260507083539 | 12 | 29 | 3.2 | 4.8 | 0.00 | 0.08 | 0.08 | 65 | 1011.3 |
| 20260507083036 | 12 | 10 | 3.2 | 4.8 | 0.00 | 0.08 | 0.08 | 66 | 1011.1 |
| 20260507082532 | 12 | 354 | 3.2 | 3.2 | 0.00 | 0.08 | 0.08 | 66 | 1011.4 |
| 20260507082028 | 12 | 354 | 3.2 | 4.8 | 0.00 | 0.08 | 0.08 | 66 | 1011.3 |
| 20260507081525 | 12 | 324 | 3.2 | 3.2 | 0.00 | 0.08 | 0.08 | 67 | 1011.2 |
| 20260507081022 | 12 | 18 | 9.7 | 9.7 | 0.00 | 0.08 | 0.08 | 67 | 1011.3 |
| 20260507080518 | 12 | 343 | 3.2 | 3.2 | 0.00 | 0.08 | 0.08 | 68 | 1010.9 |
| 20260507080014 | 12 | 2 | 0.0 | 3.2 | 0.00 | 0.08 | 0.08 | 67 | 1011.1 |
| 20260507075509 | 12 | 330 | 0.0 | 6.4 | 0.00 | 0.08 | 0.08 | 67 | 1011.0 |
| 20260507075006 | 12 | 348 | 3.2 | 4.8 | 0.00 | 0.08 | 0.08 | 67 | 1010.9 |
| 20260507074503 | 12 | 343 | 1.6 | 6.4 | 0.00 | 0.08 | 0.08 | 67 | 1010.8 |
| 20260507074002 | 12 | 12 | 6.4 | 6.4 | 0.00 | 0.08 | 0.08 | 67 | 1010.7 |
| 20260507073457 | 12 | 334 | 0.0 | 3.2 | 0.00 | 0.08 | 0.08 | 68 | 1010.8 |
| 20260507072954 | 12 | 349 | 3.2 | 4.8 | 0.00 | 0.08 | 0.08 | 67 | 1010.7 |
| 20260507072452 | 12 | 9 | 3.2 | 4.8 | 0.00 | 0.08 | 0.08 | 68 | 1010.8 |
| 20260507071949 | 12 | 3 | 6.4 | 6.4 | 0.00 | 0.08 | 0.08 | 68 | 1010.9 |
| 20260507071445 | 12 | 343 | 0.0 | 3.2 | 0.00 | 0.08 | 0.08 | 68 | 1010.6 |
| 20260507070942 | 12 | 356 | 4.8 | 8.0 | 0.00 | 0.08 | 0.08 | 67 | 1010.7 |
| 20260507070440 | 13 | 344 | 4.8 | 8.0 | 0.00 | 0.08 | 0.08 | 67 | 1010.6 |
| 20260507065936 | 13 | 342 | 3.2 | 8.0 | 0.00 | 0.08 | 0.08 | 67 | 1010.7 |
| 20260507065433 | 13 | 8 | 9.7 | 16.1 | 0.00 | 0.08 | 0.08 | 67 | 1010.5 |
| 20260507064930 | 13 | 323 | 4.8 | 6.4 | 0.00 | 0.08 | 0.08 | 70 | 1010.9 |
| 20260507064428 | 13 | 11 | 4.8 | 4.8 | 0.05 | 0.08 | 0.08 | 69 | 1010.8 |
| 20260507063926 | 13 | 1 | 3.2 | 6.4 | 0.05 | 0.08 | 0.08 | 70 | 1010.7 |
| 20260507063423 | 13 | 330 | 1.6 | 3.2 | 0.00 | 0.08 | 0.08 | 70 | 1011.1 |
| 20260507062920 | 13 | 9 | 3.2 | 4.8 | 0.05 | 0.08 | 0.08 | 71 | 1011.1 |
| 20260507062417 | 13 | 18 | 0.0 | 4.8 | 0.05 | 0.08 | 0.08 | 70 | 1011.2 |
| 20260507061914 | 13 | 353 | 3.2 | 6.4 | 0.00 | 0.05 | 0.05 | 70 | 1011.2 |
| 20260507061412 | 13 | 3 | 1.6 | 3.2 | 0.00 | 0.05 | 0.05 | 71 | 1011.1 |
| 20260507060911 | 13 | 6 | 6.4 | 6.4 | 0.00 | 0.05 | 0.05 | 71 | 1011.4 |
| 20260507060407 | 13 | 348 | 3.2 | 3.2 | 0.00 | 0.05 | 0.05 | 71 | 1011.0 |
| 20260507055904 | 13 | 349 | 4.8 | 4.8 | 0.05 | 0.05 | 0.05 | 72 | 1011.0 |
| 20260507055358 | 13 | 320 | 3.2 | 4.8 | 0.05 | 0.05 | 0.05 | 71 | 1011.0 |
| 20260507054856 | 13 | 347 | 3.2 | 4.8 | 0.00 | 0.05 | 0.05 | 72 | 1011.0 |
| 20260507054352 | 13 | 347 | 1.6 | 3.2 | 0.05 | 0.05 | 0.05 | 72 | 1011.0 |
| 20260507053849 | 13 | 353 | 3.2 | 4.8 | 0.05 | 0.05 | 0.05 | 73 | 1010.8 |
| 20260507053347 | 13 | 353 | 3.2 | 4.8 | 0.00 | 0.05 | 0.05 | 73 | 1010.8 |
| 20260507052846 | 13 | 327 | 1.6 | 4.8 | 0.00 | 0.05 | 0.05 | 73 | 1010.8 |
| 20260507052342 | 13 | 332 | 0.0 | 1.6 | 0.00 | 0.05 | 0.05 | 73 | 1011.0 |
| 20260507051839 | 13 | 10 | 8.0 | 9.7 | 0.05 | 0.05 | 0.05 | 72 | 1010.9 |
| 20260507051337 | 13 | 353 | 3.2 | 11.3 | 0.13 | 0.05 | 0.05 | 72 | 1011.0 |
| 20260507050834 | 13 | 329 | 3.2 | 12.9 | 0.13 | 0.03 | 0.03 | 72 | 1011.1 |
| 20260507050330 | 13 | 345 | 3.2 | 8.0 | 0.05 | 0.03 | 0.03 | 72 | 1011.2 |
| 20260507045827 | 13 | 6 | 6.4 | 8.0 | 0.00 | 0.00 | 0.00 | 71 | 1010.9 |
| 20260507045324 | 13 | 350 | 4.8 | 6.4 | 0.00 | 0.00 | 0.00 | 72 | 1011.0 |
| 20260507044821 | 13 | 354 | 3.2 | 6.4 | 0.00 | 0.00 | 0.00 | 72 | 1010.9 |
| 20260507044317 | 13 | 22 | 3.2 | 4.8 | 0.05 | 0.00 | 0.00 | 72 | 1010.6 |
| 20260507043813 | 13 | 352 | 4.8 | 6.4 | 0.05 | 0.00 | 0.00 | 72 | 1010.7 |
| 20260507043310 | 13 | 16 | 6.4 | 6.4 | 0.00 | 0.00 | 0.00 | 73 | 1010.7 |
| 20260507042806 | 13 | 339 | 4.8 | 6.4 | 0.00 | 0.00 | 0.00 | 74 | 1011.0 |
| 20260507042302 | 13 | 16 | 4.8 | 9.7 | 0.00 | 0.00 | 0.00 | 74 | 1010.8 |
| 20260507041759 | 14 | 0 | 4.8 | 6.4 | 0.00 | 0.00 | 0.00 | 74 | 1011.0 |
| 20260507041255 | 14 | 346 | 3.2 | 11.3 | 0.00 | 0.00 | 0.00 | 73 | 1010.8 |
| 20260507040753 | 14 | 37 | 3.2 | 4.8 | 0.00 | 0.00 | 0.00 | 73 | 1010.0 |
| 20260507040249 | 14 | 18 | 1.6 | 8.0 | 0.00 | 0.00 | 0.00 | 73 | 1010.4 |
| 20260507035745 | 14 | 6 | 8.0 | 9.7 | 0.00 | 0.89 | 0.89 | 73 | 1010.7 |
| 20260507035240 | 15 | 29 | 6.4 | 14.5 | 0.00 | 0.89 | 0.89 | 73 | 1011.0 |
| 20260507034738 | 15 | 358 | 8.0 | 12.9 | 0.00 | 0.89 | 0.89 | 73 | 1010.9 |
| 20260507034235 | 15 | 56 | 0.0 | 3.2 | 0.00 | 0.89 | 0.89 | 73 | 1010.5 |
| 20260507033733 | 15 | 346 | 4.8 | 6.4 | 0.00 | 0.89 | 0.89 | 73 | 1010.5 |
| 20260507033230 | 15 | 357 | 6.4 | 6.4 | 0.00 | 0.89 | 0.89 | 73 | 1010.3 |
| 20260507032728 | 15 | 7 | 8.0 | 14.5 | 0.00 | 0.89 | 0.89 | 73 | 1009.9 |
| 20260507032223 | 15 | 4 | 4.8 | 6.4 | 0.00 | 0.89 | 0.89 | 73 | 1010.0 |
| 20260507031720 | 15 | 359 | 0.0 | 3.2 | 0.00 | 0.89 | 0.89 | 74 | 1010.3 |
| 20260507031217 | 15 | 5 | 0.0 | 4.8 | 0.00 | 0.89 | 0.89 | 73 | 1010.1 |
| 20260507030714 | 16 | 305 | 0.0 | 6.4 | 0.00 | 0.89 | 0.89 | 73 | 1010.4 |
| 20260507030212 | 16 | 315 | 1.6 | 4.8 | 0.00 | 0.89 | 0.89 | 73 | 1010.3 |
| 20260507025708 | 16 | 13 | 1.6 | 4.8 | 0.00 | 0.89 | 0.89 | 73 | 1010.4 |
| 20260507025206 | 16 | 5 | 3.2 | 6.4 | 0.00 | 0.89 | 0.89 | 73 | 1010.2 |
| 20260507024704 | 16 | 353 | 8.0 | 8.0 | 0.00 | 0.89 | 0.89 | 73 | 1010.4 |
| 20260507024200 | 16 | 338 | 4.8 | 4.8 | 0.00 | 0.89 | 0.89 | 73 | 1009.9 |
| 20260507023656 | 16 | 345 | 4.8 | 4.8 | 0.00 | 0.89 | 0.89 | 73 | 1009.6 |
| 20260507023153 | 16 | 348 | 3.2 | 6.4 | 0.00 | 0.89 | 0.89 | 73 | 1009.5 |
| 20260507022650 | 16 | 0 | 6.4 | 8.0 | 0.00 | 0.89 | 0.89 | 73 | 1009.6 |
| 20260507022146 | 16 | 353 | 4.8 | 8.0 | 0.00 | 0.89 | 0.89 | 73 | 1009.9 |
| 20260507021643 | 16 | 359 | 6.4 | 9.7 | 0.00 | 0.89 | 0.89 | 72 | 1009.9 |
| 20260507021138 | 17 | 11 | 4.8 | 6.4 | 0.00 | 0.89 | 0.89 | 70 | 1009.7 |
| 20260507020637 | 17 | 345 | 3.2 | 9.7 | 0.00 | 0.89 | 0.89 | 70 | 1009.5 |
| 20260507020132 | 17 | 358 | 6.4 | 8.0 | 0.00 | 0.89 | 0.89 | 69 | 1009.6 |
| 20260507015631 | 17 | 350 | 6.4 | 12.9 | 0.00 | 0.89 | 0.89 | 69 | 1009.8 |
| 20260507015128 | 17 | 342 | 6.4 | 11.3 | 0.00 | 0.89 | 0.89 | 69 | 1009.6 |
| 20260507014624 | 17 | 332 | 4.8 | 6.4 | 0.00 | 0.89 | 0.89 | 69 | 1009.7 |
| 20260507014120 | 17 | 357 | 6.4 | 8.0 | 0.00 | 0.89 | 0.89 | 69 | 1009.6 |
| 20260507013617 | 17 | 349 | 6.4 | 8.0 | 0.00 | 0.89 | 0.89 | 69 | 1009.6 |
| 20260507013114 | 17 | 344 | 3.2 | 6.4 | 0.00 | 0.89 | 0.89 | 69 | 1009.4 |
| 20260507012612 | 17 | 10 | 8.0 | 8.0 | 0.00 | 0.89 | 0.89 | 70 | 1009.2 |
| 20260507012107 | 17 | 341 | 4.8 | 9.7 | 0.00 | 0.89 | 0.89 | 70 | 1009.7 |
| 20260507011606 | 17 | 2 | 6.4 | 6.4 | 0.00 | 0.89 | 0.89 | 72 | 1009.5 |
| 20260507011101 | 17 | 352 | 3.2 | 4.8 | 0.00 | 0.89 | 0.89 | 74 | 1009.4 |
| 20260507010556 | 17 | 322 | 3.2 | 4.8 | 0.00 | 0.89 | 0.89 | 75 | 1009.5 |
| 20260507010052 | 17 | 338 | 3.2 | 6.4 | 0.00 | 0.89 | 0.89 | 74 | 1009.4 |
| 20260507005550 | 17 | 2 | 3.2 | 6.4 | 0.00 | 0.89 | 0.89 | 74 | 1009.4 |
| 20260507005046 | 17 | 356 | 8.0 | 8.0 | 0.00 | 0.89 | 0.89 | 73 | 1009.5 |
| 20260507004543 | 18 | 48 | 3.2 | 8.0 | 0.00 | 0.89 | 0.89 | 74 | 1009.4 |
| 20260507004041 | 18 | 351 | 9.7 | 12.9 | 0.00 | 0.89 | 0.89 | 74 | 1009.4 |
| 20260507003536 | 18 | 352 | 3.2 | 8.0 | 0.00 | 0.89 | 0.89 | 75 | 1009.3 |
| 20260507003031 | 18 | 9 | 9.7 | 9.7 | 0.00 | 0.89 | 0.89 | 75 | 1009.3 |
| 20260507002528 | 18 | 304 | 3.2 | 3.2 | 0.00 | 0.89 | 0.89 | 77 | 1009.3 |
| 20260507002024 | 18 | 34 | 0.0 | 6.4 | 0.00 | 0.89 | 0.89 | 77 | 1009.2 |
| 20260507001521 | 18 | 346 | 4.8 | 6.4 | 0.00 | 0.89 | 0.89 | 78 | 1009.4 |
| 20260507001019 | 18 | 336 | 3.2 | 4.8 | 0.00 | 0.89 | 0.89 | 79 | 1009.3 |
| 20260507000514 | 18 | 354 | 3.2 | 6.4 | 0.00 | 0.89 | 0.89 | 79 | 1009.1 |
| 20260507000010 | 18 | 352 | 0.0 | 3.2 | 0.05 | 0.89 | 0.89 | 81 | 1008.9 |
| 20260506235508 | 18 | 348 | 4.8 | 4.8 | 0.05 | 0.89 | 0.89 | 82 | 1009.1 |
| 20260506235003 | 18 | 79 | 0.0 | 4.8 | 0.00 | 0.89 | 0.89 | 82 | 1008.9 |
| 20260506234501 | 18 | 309 | 4.8 | 4.8 | 0.00 | 0.89 | 0.89 | 82 | 1009.0 |
| 20260506233958 | 18 | 334 | 3.2 | 3.2 | 0.00 | 0.89 | 0.89 | 83 | 1008.7 |
| 20260506233455 | 18 | 340 | 3.2 | 3.2 | 0.00 | 0.89 | 0.89 | 83 | 1008.8 |
| 20260506232951 | 18 | 4 | 4.8 | 4.8 | 0.00 | 0.89 | 0.89 | 86 | 1008.5 |
| 20260506232448 | 18 | 356 | 3.2 | 3.2 | 0.00 | 0.89 | 0.89 | 88 | 1008.3 |
| 20260506231943 | 18 | 324 | 1.6 | 3.2 | 0.00 | 0.89 | 0.89 | 89 | 1008.0 |
| 20260506231441 | 18 | 297 | 3.2 | 3.2 | 0.05 | 0.89 | 0.89 | 88 | 1008.2 |
| 20260506230938 | 18 | 145 | 0.0 | 0.0 | 0.05 | 0.89 | 0.89 | 87 | 1008.2 |
| 20260506230434 | 18 | 208 | 0.0 | 3.2 | 0.00 | 0.89 | 0.89 | 86 | 1007.9 |
| 20260506225931 | 19 | 325 | 0.0 | 1.6 | 0.05 | 0.89 | 0.89 | 85 | 1008.0 |
| 20260506225428 | 19 | 277 | 0.0 | 0.0 | 0.05 | 0.89 | 0.89 | 86 | 1007.7 |
| 20260506224925 | 19 | 26 | 0.0 | 0.0 | 0.00 | 0.86 | 0.86 | 83 | 1007.9 |
| 20260506224423 | 20 | 6 | 0.0 | 3.2 | 0.05 | 0.86 | 0.86 | 81 | 1008.0 |
| 20260506223919 | 20 | 234 | 0.0 | 0.0 | 0.13 | 0.86 | 0.86 | 82 | 1007.8 |
| 20260506223414 | 20 | 317 | 3.2 | 3.2 | 0.05 | 0.86 | 0.86 | 79 | 1008.0 |
| 20260506222912 | 20 | 145 | 3.2 | 3.2 | 0.00 | 0.86 | 0.86 | 78 | 1007.8 |
| 20260506222408 | 20 | 238 | 0.0 | 3.2 | 0.00 | 0.86 | 0.86 | 76 | 1007.9 |
| 20260506221906 | 20 | 31 | 1.6 | 3.2 | 0.00 | 0.86 | 0.86 | 76 | 1007.7 |
| 20260506221402 | 20 | 234 | 0.0 | 1.6 | 0.00 | 0.86 | 0.86 | 75 | 1007.7 |
| 20260506220900 | 20 | 328 | 0.0 | 3.2 | 0.00 | 0.86 | 0.86 | 76 | 1007.7 |
| 20260506220355 | 20 | 318 | 0.0 | 1.6 | 0.00 | 0.86 | 0.86 | 76 | 1007.5 |
| 20260506215852 | 20 | 148 | 0.0 | 3.2 | 0.00 | 0.86 | 0.86 | 75 | 1007.6 |
| 20260506215348 | 20 | 290 | 3.2 | 6.4 | 0.00 | 0.86 | 0.86 | 73 | 1007.7 |
| 20260506214844 | 21 | 283 | 0.0 | 4.8 | 0.00 | 0.86 | 0.86 | 73 | 1007.8 |
| 20260506214341 | 21 | 257 | 1.6 | 6.4 | 0.00 | 0.86 | 0.86 | 73 | 1007.5 |
| 20260506213839 | 21 | 16 | 6.4 | 6.4 | 0.00 | 0.86 | 0.86 | 73 | 1007.5 |
| 20260506213336 | 21 | 238 | 0.0 | 3.2 | 0.00 | 0.86 | 0.86 | 73 | 1007.5 |
| 20260506212833 | 21 | 0 | 3.2 | 6.4 | 0.00 | 0.86 | 0.86 | 72 | 1007.3 |
| 20260506212329 | 21 | 176 | 3.2 | 6.4 | 0.00 | 0.86 | 0.86 | 72 | 1007.1 |
| 20260506211824 | 21 | 315 | 3.2 | 3.2 | 0.00 | 0.86 | 0.86 | 72 | 1007.3 |
| 20260506211320 | 21 | 247 | 6.4 | 6.4 | 0.00 | 0.86 | 0.86 | 71 | 1007.2 |
| 20260506210818 | 21 | 236 | 3.2 | 6.4 | 0.00 | 0.86 | 0.86 | 71 | 1007.1 |
| 20260506210315 | 21 | 112 | 1.6 | 3.2 | 0.00 | 0.86 | 0.86 | 72 | 1007.2 |
| 20260506205812 | 21 | 244 | 0.0 | 4.8 | 0.00 | 0.86 | 0.86 | 76 | 1006.9 |
| 20260506205308 | 21 | 3 | 1.6 | 4.8 | 0.00 | 0.86 | 0.86 | 74 | 1007.2 |
| 20260506204804 | 21 | 258 | 3.2 | 3.2 | 0.00 | 0.86 | 0.86 | 72 | 1006.8 |
| 20260506204302 | 21 | 178 | 1.6 | 4.8 | 0.00 | 0.86 | 0.86 | 71 | 1006.9 |
| 20260506203759 | 21 | 214 | 3.2 | 8.0 | 0.00 | 0.86 | 0.86 | 69 | 1006.8 |
| 20260506203257 | 21 | 219 | 4.8 | 4.8 | 0.00 | 0.86 | 0.86 | 70 | 1006.8 |
| 20260506202754 | 22 | 195 | 4.8 | 14.5 | 0.00 | 0.86 | 0.86 | 67 | 1006.9 |
| 20260506202251 | 22 | 305 | 1.6 | 4.8 | 0.00 | 0.86 | 0.86 | 69 | 1006.8 |
| 20260506201747 | 21 | 143 | 8.0 | 12.9 | 0.00 | 0.86 | 0.86 | 70 | 1007.0 |
| 20260506201244 | 21 | 3 | 6.4 | 9.7 | 0.00 | 0.86 | 0.86 | 71 | 1006.9 |
| 20260506200741 | 21 | 231 | 4.8 | 14.5 | 0.00 | 0.86 | 0.86 | 72 | 1007.1 |
| 20260506200237 | 21 | 132 | 4.8 | 6.4 | 0.00 | 0.86 | 0.86 | 72 | 1007.2 |